View from above orbital plane
|
View from above satellite
|
Ground track
|
The orbit data is extracted from the following two-line orbital elements,
1 25544U 98067A 18113.54374431 .00016717 00000-0 10270-3 0 9035
2 25544 51.6376 291.1196 0002775 3.3044 356.8127 15.54121355 30012
Epoch (UTC): | 23 April 2018 13:02:59 |
Eccentricity: | 0.0002775 |
inclination: | 51.6376° |
perigee height: | 403 km |
apogee height: | 406 km |
right ascension of ascending node: | 291.1196° |
argument of perigee: | 3.3044° |
revolutions per day: | 15.54121355 |
mean anomaly at epoch: | 356.8127° |
orbit number at epoch: | 3001 |
The dashed part of the orbit path shows where the satellite is in the earth's shadow,
|
|